STARLINK-5757, 55580

Orbit data source: Space-Track

STARLINK-5757, 55580 is a payload satellite owned by SpaceX/Seattle (US) in LEO that was launched on Sun, 12 Feb 2023 UTC via an FALCON 9 launch vehicle from the Air Force Eastern Test Range (AFETR). Payload-class satellites include a variety of spacecraft equipped with specific instruments for various scientific and technological missions. These include communications satellites like Starlink; space stations such as the ISS; scientific satellites like the Hubble; Earth observation satellites from companies like Planet Labs, Umbra, and HawkEye 360; GPS; miniature CubeSats for education and research; and military/defense satellites.

Loading next visibility...
Identifier
55580, 2023-020M
Orbit
LEO
Country
Flag of USUS
Related business
Manufacturer
SpaceX/Seattle
Mission
Operational spacecraft
Bus & Motor
STARLINK, Unknown motor
Mass
305 kg wet, ~290 kg dry
Launch date (UTC)
2023-02-12 (3 years ago)
Launch vehicle
FALCON 9
Launch site
Air Force Eastern Test Range (AFETR)
Object type
Payload
Rocket body
Debris
Shape & HBR
Unknown shape, 10.1 m
Radar Cross Section
Large (>1 m²)

Expand to show TLE details & history
Last TLE update: 19 hours ago

TLE from 19 hours ago
0 STARLINK-5757
1 55580U 23020M   25340.43884269  .00000967  00000-0  86673-4 0  9994
2 55580  43.0030 125.2042 0001380 274.7928  85.2757 15.02532343155195
Epoch: 2025-12-06T10:31Z
TLE epoch observation values (Epoch: 2025-12-06T10:31:56.008Z)
Latitude
Longitude
-108.24574°
Altitude
558.79 km
Speed
7.584 km/s
True Right ascension
08h 20m 49s
True Declination
0° 00' 00"
Sunlit
Object was in full shadow at epoch
Visualization orbit readout
Latitude
Unknown
Longitude
Unknown
Altitude
Unknown
Speed
Unknown
Apparent Right ascension
Unknown
Apparent Declination
Unknown
Sunlit
N/A
Visualization observer readout
Local Sidereal Time
03:08:05
Azimuth
Unknown
Elevation
Unknown
Doppler factor
Unknown
Orbital elements
Apogee altitude
561.972 km
Perigee altitude
560.057 km
Semi-major axis
6,939.151 km
Eccentricity
0.00014
Inclination
43.003°
RAAN
125.2042°
Arg. of periapsis
274.7928°
True anomaly
85.29146°
Mean anomaly
85.2757°
Eccentric anomaly
85.28358°
Mean motion
3.75477 °/min
Orbital period
95.88 mins
BSTAR
0.000086673
Loading maneuver chart data...
Computing Atmospheric mass density...
Loading historical data...
Loading historical data...
Loading historical data...
Loading historical data...
Loading historical data...
Loading historical data...
Loading historical data...

Documentation

Showing up to 5 results
|